Location: Asheville, NC
(35.6000°N, 82.5500°W)
Time: 03:16:11
(UTC-04:00)

BEESAT 3 - Pass Details

Date: 12 March 2018
Orbit: 499 x 517 km, 64.9° (Epoch: 19 June)

Event Time Altitude Azimuth Distance (km) Brightness Sun altitude
Exits shadow 05:07:41 18° 52° (NE) 1,321 ? -32.3°
Drops below altitude 10° 05:10:15 10° 95° (E) 1,727 ? -31.8°
Sets 05:12:58 0° 115° (ESE) 2,604 ? -31.3°
